Voltar ao catálogo

STARLINK-30400

AtivoComunicaçõesVLEO
NORAD 57937·PAYLOAD·🇺🇸 United States

Lançado Sep 25, 2023 de Vandenberg Space Force Base

Loading…

Próximas Passagens (próximas 24 horas)

TLE

AtualizadoSource: CelesTrak SupGP

Época: Sep 15, 2026, 01:42 UTC

1 57937C 23148C   26258.07131944 -.00051440  00000+0 -15197-2 0  2589
2 57937  53.1576 221.2000 0001305  89.6989 334.0096 15.34418968    10

Acompanhe STARLINK-30400 em tempo real com AllMySat

Download on the App Store